TimePDT,TemperatureF,Dew PointF,Humidity,Sea Level PressureIn,VisibilityMPH,Wind Direction,Wind SpeedMPH,Gust SpeedMPH,PrecipitationIn,Events,Conditions,WindDirDegrees,DateUTC
12:15 AM,50.0,50.0,100,30.08,0.2,Calm,Calm,-,N/A,Fog,Fog,0,2012-09-29 07:15:00
12:35 AM,51.8,51.8,100,30.08,0.2,Calm,Calm,-,N/A,Fog,Fog,0,2012-09-29 07:35:00
12:55 AM,50.0,50.0,100,30.09,0.2,Calm,Calm,-,N/A,Fog,Fog,0,2012-09-29 07:55:00
1:15 AM,51.8,51.8,100,30.10,0.2,Calm,Calm,-,N/A,Fog,Fog,0,2012-09-29 08:15:00
1:35 AM,51.8,51.8,100,30.11,0.2,North,4.6,-,N/A,Rain,Light Rain,360,2012-09-29 08:35:00
1:55 AM,51.8,51.8,100,30.11,0.5,North,8.1,-,N/A,,Light Drizzle,350,2012-09-29 08:55:00
2:15 AM,51.8,51.8,100,30.12,0.5,NNW,6.9,-,N/A,Fog,Fog,340,2012-09-29 09:15:00
2:35 AM,51.8,51.8,100,30.12,0.5,North,6.9,-,N/A,Fog,Fog,350,2012-09-29 09:35:00
2:55 AM,51.8,51.8,100,30.13,0.8,North,4.6,-,N/A,,Overcast,350,2012-09-29 09:55:00
3:15 AM,51.8,51.8,100,30.12,2.0,NNW,11.5,-,N/A,,Overcast,340,2012-09-29 10:15:00
3:35 AM,51.8,51.8,100,30.12,3.0,North,6.9,-,N/A,,Overcast,350,2012-09-29 10:35:00
3:55 AM,51.8,51.8,100,30.12,3.0,North,6.9,-,N/A,,Overcast,350,2012-09-29 10:55:00
4:15 AM,51.8,51.8,100,30.13,3.0,Calm,Calm,-,N/A,,Overcast,0,2012-09-29 11:15:00
4:35 AM,51.8,51.8,100,30.13,4.0,Calm,Calm,-,N/A,,Mostly Cloudy,0,2012-09-29 11:35:00
4:55 AM,50.0,50.0,100,30.14,1.2,NW,6.9,-,N/A,,Scattered Clouds,310,2012-09-29 11:55:00
5:15 AM,50.0,50.0,100,30.14,3.0,North,6.9,-,N/A,,Mostly Cloudy,350,2012-09-29 12:15:00
5:35 AM,50.0,48.2,94,30.14,3.0,North,6.9,-,N/A,,Mostly Cloudy,350,2012-09-29 12:35:00
5:55 AM,48.2,48.2,100,30.14,3.0,North,4.6,-,N/A,,Mist,360,2012-09-29 12:55:00
6:15 AM,48.2,48.2,100,30.15,2.5,Calm,Calm,-,N/A,,Mist,0,2012-09-29 13:15:00
6:35 AM,50.0,50.0,100,30.15,2.5,Calm,Calm,-,N/A,,Overcast,0,2012-09-29 13:35:00
6:55 AM,50.0,50.0,100,30.16,2.5,Calm,Calm,-,N/A,,Overcast,0,2012-09-29 13:55:00
7:15 AM,50.0,50.0,100,30.16,2.0,Calm,Calm,-,N/A,,Overcast,0,2012-09-29 14:15:00
7:35 AM,50.0,50.0,100,30.17,0.8,Calm,Calm,-,N/A,,Overcast,0,2012-09-29 14:35:00
7:55 AM,51.8,51.8,100,30.18,0.2,Calm,Calm,-,N/A,Fog,Fog,0,2012-09-29 14:55:00
8:15 AM,51.8,50.0,94,30.19,0.8,Calm,Calm,-,N/A,,Overcast,0,2012-09-29 15:15:00
8:35 AM,51.8,50.0,94,30.19,1.2,NNW,4.6,-,N/A,,Overcast,340,2012-09-29 15:35:00
8:55 AM,51.8,51.8,100,30.20,1.2,NNW,4.6,-,N/A,,Overcast,340,2012-09-29 15:55:00
9:15 AM,51.8,51.8,100,30.20,1.8,North,5.8,-,N/A,,Scattered Clouds,350,2012-09-29 16:15:00
9:35 AM,53.6,51.8,94,30.21,2.0,NNW,5.8,-,N/A,,Mist,340,2012-09-29 16:35:00
9:55 AM,55.4,51.8,88,30.21,2.5,NNW,3.5,-,N/A,,Haze,330,2012-09-29 16:55:00
10:15 AM,57.2,51.8,82,30.22,2.5,NNW,6.9,-,N/A,,Haze,330,2012-09-29 17:15:00
10:35 AM,57.2,50.0,77,30.22,3.0,NNW,8.1,-,N/A,,Haze,330,2012-09-29 17:35:00
10:55 AM,57.2,50.0,77,30.22,3.0,NNW,10.4,-,N/A,,Haze,340,2012-09-29 17:55:00
11:15 AM,57.2,50.0,77,30.22,4.0,NNW,11.5,-,N/A,,Haze,340,2012-09-29 18:15:00
11:35 AM,57.2,50.0,77,30.22,4.0,North,15.0,-,N/A,,Haze,350,2012-09-29 18:35:00
11:55 AM,57.2,50.0,77,30.22,5.0,North,12.7,18.4,N/A,,Haze,350,2012-09-29 18:55:00
12:15 PM,57.2,50.0,77,30.22,5.0,NNW,15.0,21.9,N/A,,Haze,340,2012-09-29 19:15:00
12:35 PM,57.2,50.0,77,30.22,5.0,NNW,12.7,18.4,N/A,,Haze,340,2012-09-29 19:35:00
12:55 PM,59.0,50.0,72,30.22,5.0,NNW,17.3,21.9,N/A,,Haze,340,2012-09-29 19:55:00
1:15 PM,59.0,50.0,72,30.22,5.0,NNW,16.1,-,N/A,,Haze,340,2012-09-29 20:15:00
1:35 PM,59.0,50.0,72,30.22,5.0,NNW,20.7,24.2,N/A,,Haze,340,2012-09-29 20:35:00
1:55 PM,59.0,50.0,72,30.22,5.0,NNW,19.6,26.5,N/A,,Haze,340,2012-09-29 20:55:00
2:15 PM,57.2,50.0,77,30.22,5.0,North,17.3,23.0,N/A,,Haze,350,2012-09-29 21:15:00
2:35 PM,57.2,50.0,77,30.21,5.0,NNW,18.4,23.0,N/A,,Haze,340,2012-09-29 21:35:00
2:55 PM,59.0,50.0,72,30.21,5.0,NNW,16.1,23.0,N/A,,Haze,340,2012-09-29 21:55:00
3:15 PM,57.2,50.0,77,30.21,5.0,NNW,17.3,23.0,N/A,,Haze,340,2012-09-29 22:15:00
3:35 PM,55.4,50.0,82,30.21,7.0,North,18.4,27.6,N/A,,Clear,350,2012-09-29 22:35:00
3:55 PM,55.4,50.0,82,30.22,5.0,North,19.6,27.6,N/A,,Haze,350,2012-09-29 22:55:00
4:15 PM,55.4,50.0,82,30.22,5.0,NNW,19.6,27.6,N/A,,Haze,340,2012-09-29 23:15:00
4:35 PM,55.4,50.0,82,30.23,5.0,North,20.7,26.5,N/A,,Haze,350,2012-09-29 23:35:00
4:55 PM,55.4,50.0,82,30.23,5.0,North,18.4,25.3,N/A,,Haze,350,2012-09-29 23:55:00
5:15 PM,55.4,50.0,82,30.23,5.0,NNW,17.3,20.7,N/A,,Haze,340,2012-09-30 00:15:00
5:35 PM,55.4,50.0,82,30.24,5.0,North,17.3,25.3,N/A,,Haze,350,2012-09-30 00:35:00
5:55 PM,55.4,50.0,82,30.24,5.0,NNW,19.6,23.0,N/A,,Haze,340,2012-09-30 00:55:00
6:15 PM,53.6,48.2,82,30.24,5.0,NNW,15.0,20.7,N/A,,Haze,340,2012-09-30 01:15:00
6:35 PM,53.6,48.2,82,30.24,5.0,NNW,15.0,-,N/A,,Haze,340,2012-09-30 01:35:00
6:55 PM,51.8,48.2,88,30.24,4.0,North,16.1,23.0,N/A,,Clear,350,2012-09-30 01:55:00
7:15 PM,51.8,48.2,88,30.24,5.0,North,8.1,19.6,N/A,,Clear,360,2012-09-30 02:15:00
7:35 PM,51.8,46.4,82,30.25,5.0,NNW,8.1,-,N/A,,Clear,340,2012-09-30 02:35:00
7:55 PM,50.0,48.2,94,30.25,5.0,North,9.2,-,N/A,,Clear,350,2012-09-30 02:55:00
8:15 PM,50.0,48.2,94,30.26,4.0,North,8.1,-,N/A,,Clear,350,2012-09-30 03:15:00
8:35 PM,50.0,48.2,94,30.27,4.0,North,10.4,-,N/A,,Clear,350,2012-09-30 03:35:00
8:55 PM,50.0,46.4,87,30.27,4.0,North,6.9,-,N/A,,Clear,350,2012-09-30 03:55:00
9:15 PM,50.0,46.4,87,30.27,3.0,North,6.9,-,N/A,,Clear,350,2012-09-30 04:15:00
9:35 PM,50.0,46.4,87,30.27,3.0,NNW,6.9,-,N/A,,Clear,340,2012-09-30 04:35:00
9:55 PM,48.2,46.4,93,30.28,3.0,North,5.8,-,N/A,,Clear,350,2012-09-30 04:55:00
10:15 PM,48.2,46.4,93,30.29,3.0,Calm,Calm,-,N/A,,Clear,0,2012-09-30 05:15:00
10:55 PM,42.8,42.8,100,30.28,5.0,Calm,Calm,-,N/A,,Clear,0,2012-09-30 05:55:00
11:15 PM,42.8,42.8,100,30.28,5.0,ESE,3.5,-,N/A,,Clear,110,2012-09-30 06:15:00
11:35 PM,44.6,42.8,93,30.28,7.0,Calm,Calm,-,N/A,,Clear,0,2012-09-30 06:35:00
11:55 PM,42.8,42.8,100,30.29,5.0,NNW,3.5,-,N/A,,Clear,340,2012-09-30 06:55:00